Weather History for KAMW - December, 2013

Change the Weather History Date:

Wednesday, December 4, 2013

  Actual Average Record
Temperature  
Mean Temperature 28 °F 27 °F  
Max Temperature 38 °F 36 °F - ()
Min Temperature 17 °F 18 °F - ()
Degree Days  
Heating Degree Days 37 38  
Month to date heating degree days 94 150  
Since 1 July heating degree days 1498 1604  
Cooling Degree Days 0 0  
Month to date cooling degree days 0 0  
Year to date cooling degree days 913 752  
Moisture  
Dew Point 30 °F    
Average Humidity 89    
Maximum Humidity 100    
Minimum Humidity 77    
Precipitation  
Precipitation 0.05 in 0.05 in - ()
Month to date precipitation 0.05 0.23  
Sea Level Pressure  
Sea Level Pressure 29.63 in    
Wind  
Wind Speed 13 mph (NW)    
Max Wind Speed 29 mph    
Max Gust Speed 35 mph    
Visibility 4 miles    
Events Fog , Rain    
T = Trace of Precipitation, MM = Missing Value Source: NWS Daily Summary

Daily Weather History Graph

Daily Weather History Graph

Search for Another Location

Airport or City:

Trip Planner

Search our weather history database for the weather conditions in past years. The results will help you decide how hot, cold, wet, or windy it might be!

Date:

Astronomy

Dec. 04, 2013 Rise Set
Actual Time 7:26 AM CST 4:43 PM CST
Civil Twilight 6:54 AM CST 5:14 PM CST
Nautical Twilight 6:20 AM CST 5:49 PM CST
Astronomical Twilight 5:46 AM CST 6:23 PM CST
Moon 8:54 AM CST (12/4) 6:55 PM CST (12/4)
Length of Visible Light 10h 19m
Length of Day
9h 17m
Waxing Crescent, 4% of the Moon is Illuminated
Dec 4
Waxing Crescent
Dec 9
First Quarter
Dec 17
Full
Dec 25
Last Quarter
Jan 1
New

Hourly Weather History & Observations

Time (CST) Temp. Windchill Dew Point Humidity Pressure Visibility Wind Dir Wind Speed Gust Speed Precip Events Conditions
12:07 AM 37.0 °F 31.6 °F 36.0 °F 96% 29.65 in 2.0 mi NE 6.9 mph - N/A   Overcast
12:31 AM 37.0 °F 31.6 °F 36.0 °F 96% 29.64 in 3.0 mi NNE 6.9 mph - N/A   Overcast
12:53 AM 37.0 °F 32.4 °F 36.0 °F 96% 29.64 in 2.5 mi East 5.8 mph - N/A   Overcast
1:24 AM 37.0 °F 33.3 °F 36.0 °F 96% 29.63 in 1.5 mi East 4.6 mph - N/A   Overcast
1:46 AM 36.0 °F 32.1 °F 36.0 °F 100% 29.61 in 0.8 mi ENE 4.6 mph - N/A   Mist
1:53 AM 36.0 °F 32.1 °F 36.0 °F 100% 29.63 in 0.5 mi ENE 4.6 mph - N/A Fog Fog
2:53 AM 36.0 °F 32.1 °F 36.0 °F 100% 29.64 in 0.5 mi North 4.6 mph - N/A Fog Fog
3:53 AM 37.0 °F 33.3 °F 36.0 °F 96% 29.62 in 0.5 mi NNW 4.6 mph - N/A Fog Fog
4:24 AM 36.0 °F 31.1 °F 36.0 °F 100% 29.59 in 0.2 mi North 5.8 mph - N/A Fog Fog
4:34 AM 37.0 °F 34.5 °F 36.0 °F 96% 29.58 in 0.5 mi North 3.5 mph - N/A Fog Fog
4:53 AM 36.0 °F 33.3 °F 36.0 °F 100% 29.59 in 0.5 mi NNE 3.5 mph - N/A Fog Fog
5:03 AM 36.0 °F - 36.0 °F 100% 29.58 in 0.2 mi Calm Calm - N/A Fog Fog
5:53 AM 36.0 °F 32.1 °F 36.0 °F 100% 29.58 in 0.2 mi NNW 4.6 mph - N/A Fog Fog
6:53 AM 37.0 °F 31.6 °F 36.0 °F 96% 29.60 in 0.2 mi NW 6.9 mph - N/A Fog Fog
7:53 AM 36.0 °F 31.1 °F 35.1 °F 97% 29.60 in 0.5 mi NW 5.8 mph - N/A Fog Fog
8:05 AM 36.0 °F 30.3 °F 35.1 °F 97% 29.58 in 1.0 mi NW 6.9 mph - N/A   Overcast
8:43 AM 36.0 °F 31.1 °F 35.1 °F 97% 29.57 in 0.8 mi North 5.8 mph - N/A   Overcast
8:53 AM 36.0 °F 30.3 °F 35.1 °F 97% 29.60 in 0.8 mi NW 6.9 mph - N/A   Overcast
9:12 AM 36.0 °F 32.1 °F 35.1 °F 97% 29.58 in 1.0 mi NNW 4.6 mph - N/A   Overcast
9:35 AM 36.0 °F 30.3 °F 36.0 °F 100% 29.57 in 0.8 mi North 6.9 mph - N/A   Overcast
9:44 AM 36.0 °F 32.1 °F 36.0 °F 100% 29.57 in 1.0 mi North 4.6 mph - N/A   Overcast
9:53 AM 37.0 °F - 36.0 °F 96% 29.58 in 1.2 mi Calm Calm - N/A   Overcast
10:33 AM 37.0 °F 34.5 °F 36.0 °F 96% 29.54 in 3.0 mi ENE 3.5 mph - N/A   Overcast
10:45 AM 37.0 °F 34.5 °F 37.0 °F 100% 29.53 in 3.0 mi ESE 3.5 mph - N/A   Overcast
10:53 AM 37.0 °F 34.5 °F 37.0 °F 100% 29.54 in 2.5 mi SE 3.5 mph - N/A   Overcast
11:31 AM 37.0 °F 29.8 °F 37.0 °F 100% 29.53 in 3.0 mi WSW 10.4 mph - N/A   Overcast
11:48 AM 37.4 °F 28.5 °F 35.6 °F 93% 29.52 in 2.5 mi West 15.0 mph - N/A   Overcast
11:53 AM 37.0 °F 27.7 °F 36.0 °F 96% 29.54 in 3.0 mi West 16.1 mph - 0.00 in   Overcast
12:06 PM 36.0 °F 25.6 °F 35.1 °F 97% 29.51 in 2.5 mi West 18.4 mph - 0.00 in Rain Light Rain
12:17 PM 36.0 °F 26.0 °F 35.1 °F 97% 29.52 in 3.0 mi WNW 17.3 mph - 0.01 in   Overcast
12:44 PM 32.0 °F 20.8 °F 30.9 °F 96% 29.52 in 2.0 mi WNW 17.3 mph 27.6 mph 0.01 in Rain Light Rain
12:53 PM 30.9 °F 19.8 °F 30.0 °F 96% 29.54 in 2.5 mi WNW 16.1 mph 26.5 mph 0.03 in   Overcast
1:05 PM 30.9 °F 19.4 °F 30.0 °F 96% 29.53 in 2.5 mi West 17.3 mph - 0.00 in Rain Light Freezing Rain
1:35 PM 30.0 °F 19.1 °F 28.9 °F 96% 29.54 in 3.0 mi WNW 15.0 mph - 0.01 in Rain Light Freezing Rain
1:53 PM 28.9 °F 16.5 °F 27.0 °F 92% 29.57 in 3.0 mi WNW 18.4 mph - 0.02 in Rain Light Freezing Rain
2:04 PM 28.9 °F 16.9 °F 26.1 °F 89% 29.54 in 9.0 mi WNW 17.3 mph - 0.00 in   Overcast
2:53 PM 27.0 °F 12.8 °F 25.0 °F 92% 29.60 in 10.0 mi WNW 21.9 mph 28.8 mph 0.00 in   Overcast
3:53 PM 25.0 °F 10.2 °F 21.9 °F 88% 29.64 in 10.0 mi WNW 21.9 mph 28.8 mph N/A   Overcast
4:05 PM 24.1 °F 11.0 °F 21.0 °F 88% 29.62 in 10.0 mi WNW 16.1 mph 26.5 mph N/A   Overcast
4:53 PM 23.0 °F 8.7 °F 19.0 °F 85% 29.69 in 10.0 mi WNW 18.4 mph - N/A   Overcast
5:53 PM 21.9 °F 5.1 °F 18.0 °F 85% 29.71 in 10.0 mi WNW 25.3 mph 32.2 mph N/A   Overcast
6:26 PM 21.0 °F 5.0 °F 16.0 °F 81% 29.72 in 10.0 mi WNW 21.9 mph 32.2 mph N/A   Overcast
6:53 PM 21.0 °F 5.0 °F 16.0 °F 81% 29.75 in 10.0 mi WNW 21.9 mph 27.6 mph N/A   Overcast
7:53 PM 19.9 °F 4.8 °F 15.1 °F 81% 29.79 in 10.0 mi WNW 18.4 mph 27.6 mph N/A   Overcast
8:53 PM 19.9 °F 3.9 °F 14.0 °F 78% 29.83 in 10.0 mi West 20.7 mph 24.2 mph N/A   Overcast
9:53 PM 19.0 °F 4.5 °F 14.0 °F 81% 29.85 in 10.0 mi WNW 16.1 mph - N/A   Overcast
10:53 PM 18.0 °F 0.2 °F 12.0 °F 78% 29.91 in 10.0 mi WNW 24.2 mph 35.7 mph N/A   Overcast
11:51 PM 17.6 °F 0.9 °F 10.4 °F 73% 29.90 in 10.0 mi WNW 20.7 mph 33.4 mph N/A   Overcast
11:53 PM 17.1 °F 1.5 °F 10.9 °F 77% 29.93 in 10.0 mi WNW 17.3 mph 33.4 mph N/A   Overcast